Cloud_Cover
51 11 5 70 31 4 14 13 3 2 0 3 7 66 100 100 100 100 100 100 98 35 100 100 100 100 100 96 100 100 100 82 100 100 100 25 32 86 95 46 96 48 12 12 100
4 13 17 0 0 0 0 6 0 3 3 0 0 8 2 82 100 100 100 100 100 87 86 97 100 100 100 99 60 86 100 100 100 100 100 84 24 5 90 44 78 38 52 52 100
23 26 6 0 0 0 1 0 0 0 0 0 0 1 5 1 65 100 100 100 48 98 100 62 93 100 100 100 17 78 100 100 100 100 100 99 100 38 45 24 72 100 100 100 100
5 2 1 0 0 0 0 0 0 0 0 0 0 21 99 40 0 1 94 100 100 93 100 97 79 100 100 100 100 84 100 100 100 100 100 66 100 42 97 90 54 100 100 100 100
1 0 0 0 0 0 0 0 0 0 4 18 39 100 98 61 4 0 0 45 100 100 94 100 27 92 97 100 100 100 100 100 100 100 100 25 100 66 100 100 94 100 98 100 100
0 1 0 0 0 0 0 0 0 2 44 100 100 100 90 58 0 0 0 0 47 100 100 100 54 33 100 97 77 100 100 100 100 100 100 58 100 38 100 100 100 100 58 100 100
0 0 0 0 0 0 0 0 0 0 65 100 100 100 100 7 0 0 0 0 0 69 100 100 100 42 94 89 97 100 100 100 100 100 99 18 100 97 100 100 100 100 100 100 100
0 2 0 0 0 0 0 0 0 11 8 13 98 100 91 0 0 0 0 0 0 0 98 100 100 87 25 60 38 100 100 97 100 100 100 12 30 99 100 100 100 100 100 100 100
0 0 1 5 0 0 0 0 0 0 0 0 22 52 5 0 0 0 0 0 0 0 0 97 100 89 7 89 68 33 69 100 100 100 100 38 5 77 100 100 100 100 100 100 100
0 0 0 1 0 0 0 0 0 0 0 0 6 50 0 0 0 0 0 0 0 0 0 0 97 97 5 4 57 100 100 100 100 100 100 100 5 58 100 100 100 100 100 100 100
0 0 0 1 0 0 0 0 0 0 0 0 0 4 1 0 0 0 0 0 0 0 0 0 4 96 79 66 52 31 89 100 100 100 100 100 100 44 75 100 100 100 100 100 100
0 0 0 0 0 0 0 0 88 69 64 0 0 0 5 2 0 0 0 0 0 0 0 0 0 97 100 100 84 10 100 100 100 100 37 61 100 100 100 100 100 100 100 100 100
0 0 0 0 0 0 0 2 18 95 47 0 0 0 2 0 0 0 1 0 0 0 0 0 0 2 100 100 100 47 100 100 100 100 13 10 81 80 100 100 100 100 100 100 100
3 1 0 0 0 0 0 0 4 100 95 2 0 0 0 0 0 0 20 2 0 0 0 0 0 0 85 100 100 100 100 100 100 100 100 72 14 8 100 100 100 100 100 100 100
3 9 0 0 0 0 0 0 0 23 2 0 0 0 0 0 2 1 5 2 0 0 0 0 0 0 1 84 100 100 100 100 100 100 100 100 19 38 100 100 100 100 100 100 100
5 1 0 0 0 0 0 0 5 4 8 0 0 0 0 6 14 1 5 4 0 0 0 0 0 0 0 42 84 100 100 100 100 100 77 82 12 6 96 100 100 100 100 100 100
5 0 0 0 0 0 0 0 4 6 0 2 0 0 4 68 31 5 62 6 0 0 0 0 0 0 0 0 5 97 100 100 100 100 4 5 5 99 100 73 100 100 100 100 100
5 0 0 0 0 0 0 0 10 31 36 5 0 0 5 2 57 5 100 81 5 0 0 0 0 0 0 0 0 30 100 100 100 54 1 0 16 88 100 100 100 100 100 100 100
4 0 0 0 0 0 0 5 98 82 70 8 2 4 5 0 6 37 100 100 50 16 20 2 0 0 0 0 0 0 14 100 100 100 60 10 18 100 90 100 100 100 80 99 100
0 2 0 0 0 0 5 20 99 100 100 100 57 16 7 5 2 98 100 100 100 99 95 3 0 0 0 0 0 0 16 100 100 100 14 5 5 98 100 100 100 100 99 100 100
4 0 0 0 0 0 13 5 46 100 100 100 69 96 85 78 5 100 100 100 100 100 100 71 16 3 24 1 4 0 10 100 100 100 100 98 54 100 100 100 100 100 100 100 100
2 2 0 0 3 5 5 3 32 32 88 100 100 100 96 16 7 100 100 100 100 100 100 100 43 95 86 1 25 58 68 98 31 37 100 100 100 100 100 100 100 100 100 100 100
5 4 0 0 8 10 2 0 0 0 70 5 100 100 100 100 48 83 100 100 100 100 100 100 100 100 100 89 100 100 100 100 100 24 100 100 100 100 100 100 100 100 100 100 100
4 11 5 5 3 1 3 1 5 0 0 0 3 100 100 100 100 22 100 100 100 100 100 100 100 100 100 100 100 100 100 100 34 38 6 100 100 100 100 100 100 100 100 100 100
11 31 33 35 7 4 3 5 5 19 0 0 0 0 17 93 90 33 67 100 100 100 100 100 100 100 100 100 100 100 100 99 91 5 79 90 100 100 100 100 100 100 100 100 100
23 64 89 5 1 1 5 27 78 65 58 2 30 5 5 5 94 5 67 100 100 100 100 100 100 100 100 100 100 100 100 100 100 86 64 100 100 100 100 100 100 100 100 100 100
65 79 91 5 5 10 5 98 48 52 6 100 35 86 16 34 48 5 5 100 100 100 100 100 100 100 100 100 100 100 100 100 100 100 100 100 100 100 100 100 100 100 100 100 100